Regional Weather Roundup
Issued by NWS

Home | Current Version | Previous Version | Text Only | Print | Product List | Glossary Off
Versions: 1 2 3 4 5 6 7 8 9 10 11 12 13 14 15 16 17 18 19 20 21 22 23 24 25 26 27 28 29 30 31 32 33 34 35 36 37 38 39 40 41 42 43 44 45 46 47 48 49 50

000
ASUS43 KFSD 250810
RWRSD

WEATHER ROUNDUP FOR SOUTH DAKOTA
NATIONAL WEATHER SERVICE SIOUX FALLS SD
300 AM CDT WED APR 25 2018

NOTE: "FAIR" INDICATES FEW OR NO CLOUDS BELOW 12,000 FEET WITH NO
SIGNIFICANT WEATHER AND/OR OBSTRUCTIONS TO VISIBILITY.


SDZ001>005-009-010-012>017-250900-
NORTHWEST AND NORTH CENTRAL SOUTH DAKOTA

CITY           SKY/WX    TMP DP  RH WIND       PRES   REMARKS
BUFFALO          N/A     35  27  72 W6        30.24F
FAITH            N/A     38  26  62 W5        30.32F
MOBRIDGE       CLEAR     34  28  79 CALM      30.30F
$$

SDZ012>016-024>037-041>051-057-063-072>074-250900-
SOUTHWEST AND SOUTH CENTRAL SOUTH DAKOTA

CITY           SKY/WX    TMP DP  RH WIND       PRES   REMARKS
RAPID CTY ARPT CLEAR     27  21  78 NW6       30.36F WCI  20
PIERRE         CLEAR     32  30  92 SW7       30.34F WCI  26
CUSTER         CLEAR     26  17  68 W5        30.33F WCI  20
ELLSWORTH AFB  CLEAR     32  25  73 SW9       30.35F WCI  25
PHILIP         CLEAR     29  26  89 W7        30.36F WCI  22
PINE RIDGE     CLEAR     29  27  92 CALM      30.39F
SPEARFISH      FAIR      32  23  69 CALM      30.33F
WINNER         FAIR      36  30  79 W8        30.35F
$$

SDZ004>011-016>023-039-040-250900-
NORTHEAST SOUTH DAKOTA

CITY           SKY/WX    TMP DP  RH WIND       PRES   REMARKS
ABERDEEN       CLEAR     27  25  92 CALM      30.33F
WATERTOWN      CLEAR     27  26  96 NW5       30.29F WCI  22
BROOKINGS      CLEAR     34  28  79 N3        30.29F
SISSETON         N/A     34  27  75 W8        30.30F WCI  27
$$

SDZ017-020-022-023-036>040-048>070-250900-
SOUTHEAST SOUTH DAKOTA

CITY           SKY/WX    TMP DP  RH WIND       PRES   REMARKS
SIOUX FALLS    CLOUDY    35  28  75 N9        30.28F WCI  28
HURON          CLEAR     31  28  89 NW5       30.33F WCI  26
CHAMBERLAIN    CLEAR     32  32 100 W5        30.35F WCI  28
MITCHELL       CLEAR     35  31  85 W5        30.33F
YANKTON        CLOUDY    41  35  79 NW13      30.31F
$$

ABBREVIATIONS USED IN REMARKS
   TC - TEMPERATURE IN CELSIUS
  WCI - WIND CHILL INDEX
   HX - HEAT INDEX
  VSB - VISIBILITY





USA.gov is the U.S. government's official web portal to all federal, state and local government web resources and services.